This is the latest recevied weather packets stored in our database for station/object VK3CG. If no packets are shown the sender has not sent any weather packets the latest 10 day(s).
| Time | Temp. | Humidity | Pressure | Rain* | Wind** | Luminosity | Snow |
|---|---|---|---|---|---|---|---|
| 1777366820 | 16.11° C | 51% | 1035.7 hPa | 0 mm | - | 0 W/m² | - |
| 1777365917 | 16.11° C | 51% | 1035.6 hPa | 0 mm | - | 0 W/m² | - |
| 1777365017 | 16.11° C | 50% | 1035.4 hPa | 0 mm | - | 0 W/m² | - |
| 1777364117 | 16.67° C | 50% | 1035.2 hPa | 0 mm | - | 0 W/m² | - |
| 1777363224 | 17.22° C | 47% | 1035.2 hPa | 0 mm | - | 0 W/m² | - |
| 1777362315 | 17.78° C | 46% | 1035.1 hPa | 0 mm | - | 0 W/m² | - |
| 1777361418 | 18.89° C | 44% | 1034.9 hPa | 0 mm | - | 5 W/m² | - |
| 1777360514 | 20° C | 40% | 1034.9 hPa | 0 mm | - | 30 W/m² | - |
| 1777359620 | 20.56° C | 37% | 1034.7 hPa | 0 mm | - | 40 W/m² | - |
| 1777358711 | 20.56° C | 35% | 1034.8 hPa | 0 mm | - | 58 W/m² | - |
| 1777357816 | 21.11° C | 34% | 1034.6 hPa | 0 mm | - | 70 W/m² | - |
| 1777356911 | 21.11° C | 33% | 1034.6 hPa | 0 mm | - | 86 W/m² | - |
| 1777356011 | 21.11° C | 36% | 1034.7 hPa | 0 mm | - | 120 W/m² | - |
| 1777355108 | 21.11° C | 37% | 1034.7 hPa | 0 mm | - | 102 W/m² | - |
| 1777354209 | 21.11° C | 37% | 1035 hPa | 0 mm | - | 137 W/m² | - |
| 1777353307 | 21.67° C | 37% | 1035.1 hPa | 0 mm | - | 134 W/m² | - |
| 1777352406 | 22.22° C | 35% | 1034.9 hPa | 0 mm | - | 130 W/m² | - |
| 1777351507 | 22.22° C | 35% | 1034.8 hPa | 0 mm | - | 309 W/m² | - |
| 1777350605 | 22.22° C | 34% | 1034.9 hPa | 0 mm | - | 343 W/m² | - |
| 1777349704 | 22.78° C | 33% | 1034.9 hPa | 0 mm | - | 554 W/m² | - |
| 1777348801 | 22.78° C | 32% | 1035.1 hPa | 0 mm | - | 155 W/m² | - |
| 1777347997 | 22.78° C | 33% | 1035.1 hPa | 0 mm | - | 538 W/m² | - |
| 1777347068 | 23.33° C | 34% | 1035.2 hPa | 0 mm | - | 524 W/m² | - |
| 1777346158 | 22.78° C | 33% | 1035.4 hPa | 0 mm | - | 589 W/m² | - |
| 1777345266 | 22.78° C | 36% | 1035.4 hPa | 0 mm | - | 624 W/m² | - |
* Rain latest hour (hover to see other rain measurements)
** Current wind speed in m/s (hover to see current wind gust speed)